Location: Unspecified
(0.0000°N, 0.0000°E)
Time: 19:45:12
(UTC+00:00)

Tiros 1 despin weight - Pass Details

Date: 02 June 2022
Orbit: 591 x 639 km, 48.2° (Epoch: 25 June)

Event Time Altitude Azimuth Distance (km) Brightness Sun altitude
Rises 10:44:08 0° 183° (S) 2,933 ? 61.4°
Reaches altitude 10° 10:48:21 10° 146° (SSE) 2,024 ? 62.0°
Maximum altitude 10:49:36 11° 131° (SE) 1,961 ? 62.2°
Drops below altitude 10° 10:50:50 10° 115° (ESE) 2,021 ? 62.4°
Sets 10:55:01 0° 79° (E) 2,922 ? 63.0°
